Tracking 19286 objects as of 18-Nov-2018
HD Live streaming from Space Station
objects crossing your sky now

MOLNIYA 3-41

Track MOLNIYA 3-41 now!
MOLNIYA 3-41 is classified as:


NORAD ID: 21706
Int'l Code: 1991-065A
Perigee: 1,553.7 km
Apogee: 38,166.7 km
Inclination: 64.4 °
Period: 704.7 minutes
Semi major axis: 26231 km
RCS: 14.2786 m2 (large)
Launch date: September 17, 1991
Source: Commonwealth of Independent States (former USSR) (CIS)
Launch site: PLESETSK MISSILE AND SPACE COMPLEX (PKMTR)
aabbcc
Your satellite tracking list
Your tracking list is empty




NASA's NSSDC Master Catalog

Two Line Element Set (TLE):
1 21706U 91065A   18321.30477351 -.00000722 +00000-0 +12219-1 0  9990
2 21706 064.4158 307.9455 6978893 270.1710 323.6824 02.04350473200173
Source of the keplerian elements: AFSPC